{"data":{"norad_id":67995,"intl_designator":"2026-039K","name":"STARLINK-36968","alt_names":[],"object_type":"PAYLOAD","status":"ACTIVE","operator":null,"country":"US","launch_date":"2026-02-27","launch_site_code":"AFETR","launch_vehicle":null,"mission":null,"orbit_class":"UNKNOWN","rcs_meters":null,"size_class":null,"mass_kg":null,"dimensions":null,"purposes":["comms"],"wikipedia_slug":null,"has_3d_model":false,"image_url":null,"decayed_at":null,"tle_current":{"epoch":"2026-05-24T17:12:41.668416Z","epoch_age_seconds":99572,"freshness":"FRESH","line1":"1 67995U 26039K   26144.71714894  .00021615  00000+0  79259-3 0  9993","line2":"2 67995  43.0025 339.3450 0001708 260.9109  99.1549 15.27583530 13338","mean_motion":15.2758353,"eccentricity":0.0001708,"inclination_deg":43.0025,"raan_deg":339.345,"arg_perigee_deg":260.9109,"mean_anomaly_deg":99.1549,"bstar":0.00079259,"rev_number":1333,"period_min":94.266530878347,"perigee_km":481.86663719026,"apogee_km":484.21041474993,"semimajor_km":6861.1755259701,"source":"CELESTRAK","updated_at":"2026-05-25T13:38:21.780735Z"}}}